Weather History for Wilmington, NC

Change the Weather History Date:

Monday, February 4, 2013

  Actual Average Record
Temperature  
Mean Temperature 39 °F 47 °F  
Max Temperature 50 °F 58 °F 81 °F (1957)
Min Temperature 27 °F 37 °F 17 °F (1981)
Degree Days  
Heating Degree Days 26 18  
Month to date heating degree days 99 72  
Since 1 July heating degree days 1423 1547  
Cooling Degree Days 0 0  
Month to date cooling degree days 0 0  
Year to date cooling degree days 12 2  
Moisture  
Dew Point 28 °F    
Average Humidity 64    
Maximum Humidity 92    
Minimum Humidity 36    
Precipitation  
Precipitation 0.00 in 0.13 in 2.12 in (2011)
Month to date precipitation 0.00 0.51  
Year to date precipitation 2.13 4.27  
Snow  
Snow 0.00 in 0.10 in 0.20 in (1886)
Month to date snowfall 0.0 0.1  
Since 1 July snowfall 0.0 1.3  
Snow Depth 0.00 in    
Sea Level Pressure  
Sea Level Pressure 30.09 in    
Wind  
Wind Speed 2 mph (NNW)    
Max Wind Speed 9 mph    
Max Gust Speed 12 mph    
Visibility 10 miles    
Events      
T = Trace of Precipitation, MM = Missing Value Source: NWS Daily Summary

Daily Weather History Graph

Daily Weather History Graph

Search for Another Location

Airport:

Trip Planner

Search our weather history database for the weather conditions in past years. The results will help you decide how hot, cold, wet, or windy it might be!

Date:

Astronomy

Feb. 04, 2013 Rise Set
Actual Time 7:06 AM EST 5:44 PM EST
Civil Twilight 6:40 AM EST 6:11 PM EST
Nautical Twilight 6:10 AM EST 6:40 PM EST
Astronomical Twilight 5:41 AM EST 7:10 PM EST
Moon 1:37 AM EST (2/4) 12:10 PM EST (2/4)
Length of Visible Light 11h 30m
Length of Day
10h 38m
Last Quarter, 37% of the Moon is Illuminated
Feb 4
Last Quarter
Feb 10
New
Feb 17
First Quarter
Feb 25
Full
Mar 4
Last Quarter

Hourly Weather History & Observations

Time (EST) Temp. Windchill Dew Point Humidity Pressure Visibility Wind Dir Wind Speed Gust Speed Precip Events Conditions
12:53 AM 39.0 °F 35.7 °F 27.0 °F 62% 30.02 in 10.0 mi NNW 4.6 mph - N/A   Clear
1:53 AM 33.1 °F - 28.0 °F 82% 30.03 in 10.0 mi Calm Calm - N/A   Clear
2:53 AM 30.9 °F - 28.9 °F 92% 30.04 in 10.0 mi Calm Calm - N/A   Clear
3:53 AM 30.9 °F - 27.0 °F 85% 30.05 in 10.0 mi Calm Calm - N/A   Clear
5:53 AM 28.4 °F - 24.8 °F 86% 30.09 in 10.0 mi Calm Calm - N/A   Clear
6:53 AM 28.0 °F 24.2 °F 24.1 °F 85% 30.10 in 10.0 mi North 3.5 mph - N/A   Clear
7:53 AM 32.0 °F 28.7 °F 27.0 °F 82% 30.12 in 10.0 mi NNE 3.5 mph - N/A   Clear
8:53 AM 39.9 °F 35.8 °F 28.0 °F 63% 30.15 in 10.0 mi NE 5.8 mph - N/A   Clear
9:53 AM 44.1 °F 41.5 °F 24.1 °F 45% 30.17 in 10.0 mi NNE 4.6 mph - N/A   Clear
10:53 AM 46.0 °F - 21.9 °F 39% 30.16 in 10.0 mi Calm Calm - N/A   Clear
11:53 AM 48.0 °F - 23.0 °F 37% 30.14 in 10.0 mi North 5.8 mph - N/A   Clear
12:21 PM 48.2 °F - 23.0 °F 37% 30.14 in 10.0 mi West 6.9 mph - N/A   Clear
12:53 PM 48.9 °F - 23.0 °F 36% 30.12 in 10.0 mi Calm Calm - N/A   Clear
1:53 PM 48.9 °F - 23.0 °F 36% 30.11 in 10.0 mi West 5.8 mph - N/A   Clear
2:53 PM 48.9 °F - 23.0 °F 36% 30.09 in 10.0 mi Calm Calm - N/A   Clear
3:53 PM 46.0 °F 42.5 °F 28.0 °F 50% 30.08 in 10.0 mi SSE 6.9 mph - N/A   Clear
4:53 PM 46.0 °F 43.1 °F 28.9 °F 51% 30.09 in 10.0 mi South 5.8 mph - N/A   Clear
5:53 PM 44.1 °F 40.1 °F 30.9 °F 60% 30.10 in 10.0 mi South 6.9 mph - N/A   Clear
6:53 PM 44.1 °F - 30.9 °F 60% 30.09 in 10.0 mi Calm Calm - N/A   Clear
7:53 PM 44.1 °F - 32.0 °F 63% 30.08 in 10.0 mi Calm Calm - N/A   Clear
8:53 PM 43.0 °F - 33.1 °F 68% 30.08 in 10.0 mi Calm Calm - N/A   Clear
9:53 PM 42.1 °F - 34.0 °F 73% 30.07 in 10.0 mi Calm Calm - N/A   Clear
10:53 PM 42.1 °F - 34.0 °F 73% 30.08 in 10.0 mi Calm Calm - N/A   Clear
11:53 PM 42.1 °F 40.2 °F 36.0 °F 79% 30.07 in 10.0 mi WSW 3.5 mph - N/A   Clear